2021 CR3 |
ephemeris |
date |
magn |
radius |
delta |
ra |
dec |
elong |
phase |
Today | 21 Oct 2025 | 23.1 | 0.973 AU | 0.299 AU | 08h27m | -10°16' | 77.1° | 85.5° |
2021 CR3 - 2025-10-21
astro.vanbuitenen.nl
The interactive orbit chart above shows the body's path through the solar system and its position at the given date.
Green and blue lines are shown perpendicular to the ecliptic plane: Green if the path is above the ecliptic plane, blue if it is below.
(Left-click and drag to rotate the view; Right-click and drag to move the view; Use scroll wheel to zoom in our out.)
The orbital elements of 2021 CR3 are:
e (Eccentricity) : 0.6420552
a (Semimajor axis) : 1.0627026
i (Inclination) : 8.80841
Ω (Longitude of ascending node) : 150.19205
ω (Argument of perihelion) : 128.86637
M (Mean anomaly) : 253.96158
Epoch : 2025 May 05
L (Longitude of perihelion) : 99.39095
B (Latitude of perihelion) : 6.84764
P (Orbital period in years) : 1.10
The light curve chart below shows the estimated development of the minor planet's magnitude.
The all-sky chart below shows the path of the minor planet over the same period as the light curve. The current position is marked yellow.
The following chart shows the path of the minor planet in the next few days. The field of view is optimized for (~10x50) binoculars and finderscopes.
Ephemerides:
Date Time RA (2000) DEC (2000) delta radius elong phase PA magn
2025-10-21 00:00 UT 08 27 38.4 -10 16 24 0.299 0.973 77.1 85.5 279 23.1
2025-10-21 02:48 UT 08 26 56.0 -10 18 07 0.299 0.975 77.3 85.3 279 23.1
2025-10-22 00:00 UT 08 21 34.0 -10 31 04 0.297 0.985 79.4 83.4 279 23.1
2025-10-23 00:00 UT 08 15 26.6 -10 45 25 0.296 0.996 81.7 81.2 280 23.0
2025-10-24 00:00 UT 08 09 16.0 -10 59 24 0.295 1.008 84.0 79.1 281 22.9
2025-10-25 00:00 UT 08 03 01.8 -11 12 59 0.294 1.019 86.3 76.9 281 22.9
2025-10-26 00:00 UT 07 56 44.0 -11 26 05 0.294 1.030 88.6 74.8 282 22.8
Terminology:
delta: distance between minor planet and earth in AU
radius: distance between minor planet and sun in AU
magn: magnitude (brightness) estimate
ra: right ascension in hours (24h = 360deg)
dec: declination in degrees
elong: elongation in degrees (angle sun-earth-minor planet)
phase: phase angle in degrees (angle sun-minor planet-earth)
AU: Astronomical Unit (mean distance between earth and sun: 149597870.7 km
Orbital elements provided by the MPC (Minor Planet Center).
Calculations by a modified version of AAPlus, a C# implementation of the AA+ project by PJ Naughter from the algorithms presented in the book "Astronomical Algorithms" by Jean Meeus.
NGC2000 dso catalog and star labels from VizieR as provided by the Strasbourg astronomical Data Center.
Tycho2 catalog from the ESO archive.